Hourly Data Report for November 24, 2017

All times are specified in Local Standard Time (LST). Add 1 hour to adjust for Daylight Saving Time where and when it is observed.

GREENWOOD A
NOVA SCOTIA

44°59'00.000" N
64°55'00.000" W
28.00 m
8202000
71397
YZX

Download Data

Hourly Data (November 2017)
Hourly Data Report for November 24, 2017
Temp Definition
°C
Dew Point Temp Definition
°C
Rel Hum Definition
%
Wind Dir Definition
10's deg

Wind Spd Definition
km/h
Visibility Definition
km
Stn Press Definition
kPa
Hmdx Definition


Wind Chill Definition


Weather Definition


TIME
00:00 0.7 -3.4 74 30 17 24.1 100.81     Mostly Cloudy
01:00 0.2 -3.5 76 28 15 24.1 100.80     Cloudy
02:00 0.4 -4.4 70 26 13 24.1 100.78     Cloudy
03:00 0.3 -4.4 71 26 13 24.1 100.84     Cloudy
04:00 0.4 -4.4 70 26 13 24.1 100.85     Cloudy
05:00 -0.1 -4.5 72 23 9 24.1 100.90   -3 Mainly Clear
06:00 -0.4 -4.9 72 21 11 24.1 100.89   -4 Mainly Clear
07:00 -0.9 -4.6 76 22 11 24.1 100.91   -5 Mainly Clear
08:00 -2.0 -4.5 83 28 6 24.1 100.97   -4 Mainly Clear
09:00 -0.1 -3.9 76 25 7 24.1 101.00   -3 Mainly Clear
10:00 2.7 -1.8 72 23 9 24.1 101.01     Mainly Clear
11:00 4.3 0.6 77 24 17 24.1 101.04     Mostly Cloudy
12:00 5.0 1.1 76 26 26 24.1 101.03     Mostly Cloudy
13:00 5.0 1.1 76 26 20 24.1 100.97     Mostly Cloudy
14:00 5.8 1.8 75 24 20 24.1 100.96     Mostly Cloudy
15:00 5.8 1.8 75 27 19 24.1 101.00     Mostly Cloudy
16:00 5.1 2.7 84 26 15 24.1 101.07     Mostly Cloudy
17:00 5.0 1.9 80 23 9 24.1 101.13     Mostly Cloudy
18:00 3.4 0.8 83 18 7 24.1 101.17     Mostly Cloudy
19:00 3.5 1.0 84 18 4 24.1 101.17     Mostly Cloudy
20:00 4.3 -0.2 73   0 24.1 101.22     Mostly Cloudy
21:00 3.6 1.3 85 36 4 24.1 101.20     Mostly Cloudy
22:00 3.9 1.9 87 20 4 24.1 101.20     Mostly Cloudy
23:00 4.1 1.9 86 16 11 24.1 101.20     Mostly Cloudy

Notes on Data Quality.

Legend

  • E = Estimated
  • M = Missing
  • NA = Not Available
  • ‡ = Partner data that is not subject to review by the National Climate Archives
Date modified: